Clarksburg, WV

2:20 AM EDT on April 26, 2018 (GMT -0400)
Benedum

Weather History for KCKB - May, 2013

Change the Weather History Date:

Monday, May 27, 2013

  Actual Average Record
Temperature  
Mean Temperature 52 °F -  
Max Temperature 66 °F 76 °F 96 °F (1939)
Min Temperature 39 °F 50 °F 34 °F (1961)
Degree Days  
Heating Degree Days 12    
Growing Degree Days 2 (Base 50)    
Moisture  
Dew Point 44 °F    
Average Humidity 72    
Maximum Humidity 89    
Minimum Humidity 50    
Precipitation  
Precipitation 0.00 in - - ()
Sea Level Pressure  
Sea Level Pressure 30.21 in    
Wind  
Wind Speed 1 mph (ESE)    
Max Wind Speed 5 mph    
Max Gust Speed -    
Visibility 10 miles    
Events Rain    
Averages and records for this station are not official NWS values.
T = Trace of Precipitation, MM = Missing Value Source: NWS Daily Summary

Daily Weather History Graph

Daily Weather History Graph

Search for Another Location

Airport or City:

Astronomy

May. 27, 2013 Rise Set
Actual Time 5:58 AM EDT 8:38 PM EDT
Civil Twilight 5:27 AM EDT 9:09 PM EDT
Nautical Twilight 4:48 AM EDT 9:48 PM EDT
Astronomical Twilight 4:04 AM EDT 10:32 PM EDT
Moon 11:16 PM EDT (5/27) 8:33 AM EDT (5/27)
Length of Visible Light 15h 42m
Length of Day
14h 39m
Waning Gibbous, 91% of the Moon is Illuminated
May 27
Waning Gibbous
May 31
Last Quarter
Jun 8
New
Jun 16
First Quarter
Jun 23
Full

Hourly Weather History & Observations

Time (EDT) Temp. Dew Point Humidity Pressure Visibility Wind Dir Wind Speed Gust Speed Precip Events Conditions
12:53 AM 46.9 °F 41.0 °F 80% 30.26 in 10.0 mi Calm Calm - N/A   Clear
1:53 AM 44.1 °F 39.9 °F 85% 30.25 in 10.0 mi Calm Calm - N/A   Clear
2:53 AM 43.0 °F 39.9 °F 89% 30.26 in 10.0 mi Calm Calm - N/A   Clear
3:53 AM 39.9 °F 37.0 °F 89% 30.25 in 10.0 mi Calm Calm - N/A   Clear
4:53 AM 42.1 °F 37.9 °F 85% 30.25 in 10.0 mi Calm Calm - N/A   Clear
5:53 AM 42.1 °F 39.0 °F 89% 30.25 in 10.0 mi Calm Calm - N/A   Clear
6:53 AM 44.1 °F 39.9 °F 85% 30.25 in 10.0 mi Calm Calm - N/A   Clear
7:53 AM 46.9 °F 42.1 °F 83% 30.26 in 10.0 mi Calm Calm - N/A   Clear
8:53 AM 48.9 °F 43.0 °F 80% 30.26 in 10.0 mi Calm Calm - N/A   Mostly Cloudy
9:53 AM 50.0 °F 43.0 °F 77% 30.27 in 10.0 mi Calm Calm - N/A   Overcast
10:53 AM 53.1 °F 45.0 °F 74% 30.25 in 10.0 mi Calm Calm - 0.00 in Rain Light Rain
11:53 AM 55.9 °F 45.0 °F 67% 30.26 in 10.0 mi Calm Calm - 0.00 in   Overcast
12:53 PM 57.9 °F 46.0 °F 65% 30.25 in 10.0 mi Calm Calm - N/A   Overcast
1:53 PM 59.0 °F 45.0 °F 60% 30.24 in 10.0 mi Calm Calm - N/A   Overcast
2:53 PM 60.1 °F 46.0 °F 60% 30.22 in 10.0 mi East 3.5 mph - 0.00 in   Overcast
3:53 PM 61.0 °F 46.0 °F 58% 30.20 in 10.0 mi South 3.5 mph - N/A   Overcast
4:53 PM 63.0 °F 48.0 °F 58% 30.17 in 10.0 mi Variable 3.5 mph - N/A   Overcast
5:53 PM 64.9 °F 46.0 °F 50% 30.15 in 10.0 mi East 3.5 mph - N/A   Clear
6:53 PM 66.0 °F 48.0 °F 52% 30.12 in 10.0 mi East 4.6 mph - N/A   Clear
7:53 PM 64.0 °F 48.0 °F 56% 30.12 in 10.0 mi East 3.5 mph - N/A   Clear
8:53 PM 61.0 °F 51.1 °F 70% 30.10 in 10.0 mi Calm Calm - N/A   Scattered Clouds
9:53 PM 57.9 °F 50.0 °F 75% 30.11 in 10.0 mi Calm Calm - N/A   Clear
10:53 PM 60.1 °F 48.9 °F 67% 30.10 in 10.0 mi Calm Calm - N/A   Partly Cloudy
11:53 PM 57.0 °F 50.0 °F 77% 30.10 in 10.0 mi Calm Calm - N/A   Clear